LUCH-5B

Last updated on Mon Sep 21 2026 00:02:58 GMT+0000 (Coordinated Universal Time)

1 38977U 12061A 26263.20273414 -.00000137 00000+0 00000+0 0 9996 2 38977 10.6854 48.9112 0005872 164.6917 202.1736 1.00273421 50568
UTC large
Height (km)
Speed (km/s)
/
Latitude / Longitude
Inclination (degrees)
Orbital Period (minutes)
Azimuth
Elevation
Range (km)
Doppler Factor

Next 0 passes for location: London (51.5072 / 0.1276)

No passes found over London.
LUCH-5B